Preview of NWS' New Version of Forecast
This preview is not operational and should not be used for support decisions.
Latest weather observations around

Ottumwa, Ottumwa Industrial Airport (KOTM)

Using English Units (Switch to International System of Units)
Date/ Time (CDT) Wind (mph) Vis. (mi) Weather Sky Cond. Temp (°F) Rel. Humidity Wind Chill (°F) Heat Index (°F) Pressure Precip. (in)
Air Dwpt 6 hour Altimeter (inHg) Sea level (inHg) 1 hr 3 hr 6 hr
Max Min
Jun 19 13:25 NE 11 6 Light Rain and Fog/Mist BKN009 OVC016 69 66     90%     29.71   0    
Jun 19 13:14 ENE 13 6 Light Rain and Fog/Mist BKN011 OVC021 69 65     87%     29.72   0    
Jun 19 12:53 NE 9 5 Light Rain and Fog/Mist BKN008 OVC012 69 66     90%     29.73 29.71 0   0
Jun 19 12:27 NE 10 6 Light Rain and Fog/Mist BKN009 BKN050 OVC110 68 65     90%     29.73   0    
Jun 19 12:08 NNE 8 5 Light Rain and Fog/Mist FEW008 BKN090 OVC110 68 65     90%     29.73   0    
Jun 19 11:53 NNE 10 4 Light Rain and Fog/Mist OVC100 68 65     90%     29.74 29.72 0    
Jun 19 10:53 NE 8 4 Rain and Fog/Mist OVC100 67 64     90%     29.75 29.73 0    
Jun 19 09:53 ENE 11 7 Light Rain OVC075 68 62     81%     29.76 29.74 0 0  
Jun 19 08:53 NE 10 10 Cloudy OVC080 68 63     84%     29.77 29.75      
Jun 19 07:53 NE 9 9 Mostly Cloudy SCT095 BKN120 68 63     84%     29.77 29.75 0    
Jun 19 06:53 NE 8 9 Light Rain FEW045 BKN080 OVC100 67 63     87%     29.77 29.75 0   0
Jun 19 05:53 NNE 11 9 Cloudy BKN060 BKN090 OVC110 66 62     87%     29.78 29.76      
Jun 19 04:53 NNE 9 9 Cloudy BKN038 BKN049 OVC120 66 63     90%     29.79 29.77      
Jun 19 03:53 NNE 8 10 Mostly Cloudy BKN045 BKN095 67 63     87%     29.8 29.78 0 0  
Jun 19 02:53 N 8 10 Mostly Cloudy BKN120 67 62     84%     29.82 29.8 0    
Jun 19 01:53 NNE 7 10 Mostly Cloudy BKN100 67 62     84%     29.83 29.82 0    
Jun 19 00:53 NNE 8 10 Mostly Cloudy FEW060 SCT100 BKN120 68 62     81%     29.84 29.83 0   0
Jun 18 23:53 NE 8 10 Partly Cloudy FEW047 SCT120 69 63     81%     29.85 29.84      
Jun 18 22:53 NE 7 10 Mostly Clear FEW042 FEW050 71 62     73%   71 29.86 29.84      
Jun 18 21:53 NE 7 10 Clear CLR 72 63     73%   72 29.86 29.84      
Jun 18 20:53 NNE 3 10 Mostly Cloudy BKN050 BKN060 74 62     66%   74 29.86 29.84      
Jun 18 19:53 NNE 6 10 Partly Cloudy SCT050 76 61     60%   76 29.86 29.84      
Jun 18 18:53 NNE 7 10 Clear CLR 78 62     58%   78 29.85 29.83      
Jun 18 17:53 NNE 3 10 Mostly Clear FEW044 80 60     51%   81 29.86 29.84      
Jun 18 16:53 Calm 10 Clear CLR 79 61     54%   79 29.87 29.85      
Jun 18 15:53 SE 5 10 Clear CLR 81 61     51%   82 29.89 29.87      
Jun 18 14:53 3 10 Partly Cloudy SCT100 SCT120 78 63     60%   78 29.91 29.9      
Jun 18 13:53 Calm 10 Cloudy OVC110 77 62     60%   77 29.93 29.92      
Jun 18 12:53 Calm 10 Partly Cloudy SCT032 78 62     58%   78 29.94 29.93      
Jun 18 11:53 SSE 3 10 Clear CLR 74 62     66%   74 29.96 29.94      
Jun 18 10:53 Calm 10 Mostly Cloudy FEW020 BKN080 73 62     68%   73 29.97 29.95      
Jun 18 09:53 Calm 10 Partly Cloudy SCT013 70 63     78%     29.97 29.96      
Jun 18 08:53 Calm 7 Cloudy FEW006 OVC085 67 63     87%     29.97 29.96      
Jun 18 08:16 Calm 6 Fog/Mist FEW006 OVC080 66 62     87%     29.98        
Jun 18 08:06 SSW 3 6 Fog/Mist BKN006 OVC085 65 62     90%     29.98        
Jun 18 07:53 SSW 3 5 Fog/Mist SCT006 OVC080 65 62     90%     29.98 29.97      
Jun 18 07:39 Calm 5 Fog/Mist FEW006 BKN080 65 62     90%     29.98        
Jun 18 07:04 Calm 3 Fog/Mist SCT110 62 61     96%     29.96        
Jun 18 06:53 Calm 2 Fog/Mist CLR 61 60     97%     29.97 29.95      
Jun 18 06:40 Calm 1.5 Fog/Mist FEW007 59 58     96%     29.97        
Jun 18 06:33 Calm 1 Fog/Mist VV007 59 57     93%     29.97        
Jun 18 06:14 Calm 0.25 Fog VV007 58 58     100%     29.96        
Jun 18 06:05 ESE 3 0.5 Fog CLR 57 57     100%     29.95        
Jun 18 05:53 ESE 5 1 Fog/Mist CLR 58 57     97%     29.95 29.94      
Jun 18 05:45 ESE 5 1 Fog/Mist VV005 58 57     97%     29.95        
Jun 18 05:41 ESE 3 0.75 Fog/Mist VV004 59 57     93%     29.95        
Jun 18 05:33 E 3 0.5 Fog VV005 58 56     93%     29.95        
Jun 18 05:23 ESE 6 0.25 Fog VV004 57 56     96%     29.96        
Jun 18 05:14 ESE 3 0.5 Fog VV004 58 57     97%     29.96        
Jun 18 05:10 ESE 3 1.5 Fog/Mist CLR 58 57     97%     29.96        
Jun 18 04:53 E 5 4 Fog/Mist CLR 60 58     93%     29.96 29.94      
Jun 18 04:49 E 3 4 Fog/Mist CLR 61 57     88%     29.96        
Jun 18 04:35 ESE 3 2 Fog/Mist CLR 60 57     90%     29.96        
Jun 18 03:53 SE 6 3 Fog/Mist CLR 59 57     93%     29.96 29.95      
Jun 18 02:53 ESE 3 4 Fog/Mist CLR 60 58     93%     29.97 29.96      
Jun 18 02:19 SE 3 3 Fog/Mist CLR 60 58     93%     29.98        
Jun 18 02:08 Calm 1.25 Fog/Mist CLR 58 56     93%     29.98        
Jun 18 01:53 Calm 2.5 Fog/Mist CLR 59 57     93%     29.98 29.97      
Jun 18 00:53 ESE 5 6 Fog/Mist CLR 64 60     87%     29.98 29.97      
Jun 17 23:53 SE 5 6 Fog/Mist CLR 64 60     87%     29.98 29.97      
Jun 17 22:53 ESE 6 8 Clear CLR 65 61     87%     29.97 29.96      
Jun 17 21:53 ESE 7 10 Clear CLR 66 62     87%     29.97 29.96      
Jun 17 20:53 ESE 5 10 Clear CLR 69 63     81%     29.96 29.95      
Jun 17 19:53 E 6 10 Clear CLR 73 62     68%   73 29.97 29.95      
Jun 17 18:53 E 6 10 Clear CLR 74 61     64%   74 29.96 29.95      
Jun 17 17:53 E 5 10 Clear CLR 76 62     62%   76 29.96 29.95      
Jun 17 16:53 E 7 10 Mostly Clear FEW028 75 62     64%   75 29.97 29.96      
Jun 17 15:53 E 7 10 Mostly Clear FEW028 75 62     64%   75 29.97 29.96      
Jun 17 14:53 E 7 10 Mostly Clear FEW026 75 62     64%   75 29.97 29.96      
Jun 17 14:15 E 9 10 Partly Cloudy SCT025 74 62     66%   74 29.98        
Jun 17 14:06 E 9 10 Mostly Cloudy BKN025 74 62     66%   74 29.99        
Jun 17 13:53 7 6 Haze SCT023 75 62     64%   75 29.99 29.98      
Jun 17 12:53 7 10 Mostly Cloudy BKN019 72 61     68%   72 30.01 29.99      
Jun 17 11:53 E 7 10 Mostly Cloudy BKN017 70 61     73%     30.01 30      
Jun 17 10:53 E 9 10 Cloudy OVC016 69 61     75%     30 29.99      
Jun 17 10:16 ENE 8 10 Cloudy OVC015 68 61     78%     30.01        
Jun 17 09:53 ENE 8 10 Cloudy OVC014 67 60     79%     30.01 29.99      
Jun 17 09:32 ENE 9 10 Cloudy OVC011 66 60     81%     30        
Jun 17 08:53 NE 8 10 Cloudy OVC008 65 60     84%     30 29.98      
Jun 17 07:53 ENE 8 8 Cloudy OVC005 63 60     90%     29.98 29.96      
Jun 17 07:43 ENE 8 7 Cloudy OVC005 63 61     93%     29.98        
Jun 17 07:29 NE 6 4 Fog/Mist OVC003 63 61     93%     29.98        
Jun 17 06:53 NE 7 2.5 Fog/Mist OVC003 63 61     93%     29.98 29.96      
Jun 17 06:31 E 5 2.5 Fog/Mist OVC002 62 61     96%     29.97        
Jun 17 06:15 ENE 6 1 Fog/Mist VV002 62 61     96%     29.97        
Jun 17 05:53 NE 5 0.25 Fog VV002 62 60     93%     29.96 29.95      
Jun 17 05:25 NE 6 0.25 Fog VV002 62 60     93%     29.96        
Jun 17 05:15 NNE 6 0.5 Fog VV002 62 60     93%     29.95        
Jun 17 05:04 NE 5 1.75 Fog/Mist BKN003 OVC008 62 60     93%     29.95        
Jun 17 05:01 NE 5 3 Fog/Mist BKN003 OVC008 62 60     93%     29.95        
Jun 17 04:53 NE 6 4 Fog/Mist OVC007 62 60     93%     29.95 29.93      
Jun 17 03:53 ENE 5 5 Fog/Mist OVC007 63 61     93%     29.95 29.93      
Jun 17 03:43 E 3 5 Fog/Mist BKN007 62 60     93%     29.94        
Jun 17 03:36 E 5 5 Fog/Mist SCT008 62 60     93%     29.94        
Jun 17 02:53 NE 3 5 Fog/Mist CLR 63 60     90%     29.94 29.92      
Jun 17 01:53 NNE 5 6 Fog/Mist CLR 63 61     93%     29.93 29.92      
Jun 17 00:53 ENE 3 7 Clear   64 61     90%     29.94 29.92      
Jun 16 23:53 E 6 9 Clear CLR 65 62     90%     29.93 29.91      
Jun 16 22:53 E 7 10 Clear CLR 66 62     87%     29.93 29.91      
Jun 16 21:53 E 8 10 Clear CLR 68 63     84%     29.91 29.9      
Jun 16 20:53 E 7 10 Clear CLR 70 63     78%     29.89 29.88      
Jun 16 19:53 ENE 6 10 Mostly Clear FEW047 74 64     71%   74 29.87 29.85      
Jun 16 18:53 7 10 Mostly Cloudy FEW032 BKN041 76 63     64%   76 29.85 29.84      
Jun 16 17:53 N 7 10 Cloudy BKN030 OVC036 76 62     62%   76 29.86 29.85      
Jun 16 17:38 N 8 10 Mostly Cloudy BKN030 BKN035 76 62     62%   76 29.86        
Jun 16 17:13 N 9 10 Mostly Cloudy BKN028 77 64     64%   77 29.86        
Jun 16 17:04 N 14 10 Partly Cloudy SCT028 77 64     64%   77 29.86        
Jun 16 16:53 N 10 10 Mostly Cloudy BKN027 BKN033 77 64     64%   77 29.86 29.84      
Jun 16 16:05 N 10 10 Partly Cloudy FEW025 SCT032 77 65     66%   78 29.86        
Jun 16 15:53 N 10 10 Mostly Cloudy BKN027 BKN032 77 65     66%   78 29.86 29.85      
Jun 16 15:00 NE 7 10 Mostly Cloudy SCT022 BKN029 77 65     66%   78 29.87        
Jun 16 14:53 7 10 Partly Cloudy FEW022 SCT029 78 66     67%   79 29.87 29.85      
Jun 16 13:53 N 8 10 Cloudy BKN021 OVC026 75 64     69%   75 29.86 29.85      
Jun 16 13:18 N 6 10 Mostly Cloudy BKN019 75 65     71%   76 29.86        
Jun 16 12:53 N 8 10 Partly Cloudy SCT016 75 65     71%   76 29.85 29.83      
Jun 16 12:12 N 9 10 Partly Cloudy SCT013 73 64     73%   73 29.85        
May 15 06:23 NW 9 2 Thunderstorms and Heavy Rain and Fog/Mist FEW006 BKN010 OVC050 64 63     96%     29.94   0    
May 15 03:53   5 Clear   65 63     93%     29.86 29.84 0 0  
May 14 14:10 NW 9 6 Haze BKN018 75 67     76%   76 29.91        
May 14 12:53 N 9 4 Haze SCT013 73 66     79%   74 29.92 29.91      
May 14 10:53 W 7 5 Haze CLR 71 64     79%   72 29.93 29.92      
May 13 11:49 NNE 6 2.5 Clear   57 54     88%     30.04        
May 12 10:49   2.5 Rain and Fog/Mist BKN085 OVC110 48 48     100%     29.96   0    
May 12 02:53 ENE 13 10 Mostly Clear FEW065 50 45     83% 45   29.9 29.89 0    
May 12 00:53 ENE 11 10 Mostly Cloudy SCT060 BKN120 53 46     77%     29.91 29.91     0
May 11 20:53 ENE 15 10 Cloudy SCT060 OVC090 60 49     67%     29.85 29.84      
Notice The following observation data may not be complete
May 11 11:53 S 13 10 Clear CLR   63      %     29.8 29.79      
Jun 11 22:53 S 10 10 Clear CLR 79 66     65%   80 29.84 29.82      
Jun 10 12:53 SSW 25 10 Clear and Windy CLR 86 61     43%   86 29.75 29.73      
Jun 10 01:53 S 10 10 Clear CLR 68 54     61%     29.79 29.76      
Jun 09 15:53 SSW 13 10 Clear   88 54     31%   86 29.79 29.77      
Jun 08 09:53 WSW 8 10 Clear CLR 75 51     43%   74 30.04 30.03      
Jun 08 06:53 Calm 10 Clear CLR 58 49     72%     30.05 30.03      
Jun 07 07:53 Calm 10 Clear CLR 67 50     55%     30.14 30.13